GSAT-16

Last updated on Thu Aug 13 2026 00:03:00 GMT+0000 (Coordinated Universal Time)

1 40332U 14078A 26224.58301484 .00000067 00000+0 00000+0 0 9992 2 40332 0.0643 87.0215 0006889 19.5138 119.4637 1.00271113 42674
UTC large
Height (km)
Speed (km/s)
/
Latitude / Longitude
Inclination (degrees)
Orbital Period (minutes)
Azimuth
Elevation
Range (km)
Doppler Factor

Next 0 passes for location: London (51.5072 / 0.1276)

No passes found over London.
GSAT-16